[[{"header":{"parameterUnit":"m.s-1","parameterCategory":1,"la1":30.2991,"la2":30.254,"lo1":-89.0895,"lo2":-89.0444,"dy":0.0017,"dx":0.0017,"nx":28,"ny":28,"refTime":"2025-02-12T09:00:00:Z","depth":0,"parameterNumber":2,"parameterNumberName":"U-component_of_WINDS"},"data":[0,0,0,0,0,0,0,0,0,0,0,0,0,0,0,0,0,0,0,0,0,0,0,0,0,0,0,0,0,0,0,0,0,0,0,0,0,0,0,0,0,0,0,0,0,0,0,0,0,0,0,0,0,0,0,0,0,0,-4.6393,-4.6394,0,-4.6476,-4.6477,-4.6478,-4.6364,-4.636,-4.6356,-4.6352,-4.6439,-4.6445,-4.6451,0,0,0,0,0,0,0,0,0,0,0,0,0,-4.6136,-4.6142,-4.6393,-4.6394,-4.6395,-4.6476,-4.6477,-4.6478,-4.6364,-4.6359,-4.6355,-4.635,-4.6437,-4.6444,-4.6451,0,0,0,0,0,0,0,0,0,0,0,0,0,-4.6237,-4.6144,-4.6393,-4.6348,-4.6345,-4.6476,-4.6477,-4.6478,-4.6366,-4.6359,-4.6353,-4.6348,-4.6434,-4.6443,-4.6452,-4.6632,0,0,-4.648,-4.6484,0,0,0,0,0,0,0,0,-4.6231,-4.6246,-4.6354,-4.6351,-4.6348,-4.6403,-4.6418,-4.653,-4.6367,-4.6358,-4.6352,-4.6345,-4.6432,-4.6441,-4.647,-4.6636,-4.6639,-4.6481,-4.6487,-4.6491,-4.6493,0,0,0,0,0,0,0,-4.6224,-4.6242,-4.6426,-4.6355,-4.6352,-4.6324,-4.6331,-4.6439,-4.6428,-4.6358,-4.635,-4.6361,-4.6429,-4.6462,-4.6471,-4.6641,-4.6481,-4.6489,-4.6495,-4.6498,-4.6956,-4.6963,0,0,0,0,0,0,-4.6223,-4.6237,-4.6423,-4.6428,-4.6273,-4.6334,-4.6342,-4.6392,-4.6427,-4.6426,-4.6366,-4.6356,-4.6449,-4.6461,-4.6474,-4.6686,-4.6491,-4.6499,-4.6505,-4.695,-4.6958,-4.6965,0,0,0,0,0,0,-4.6217,-4.624,-4.642,-4.633,-4.6351,-4.6344,-4.6401,-4.6397,-4.6429,-4.6433,-4.6431,-4.6401,-4.6444,-4.6461,-4.6593,-4.6687,-4.6503,-4.6512,-4.6942,-4.6952,-4.6962,-4.7112,0,0,0,0,0,0,-4.6211,-4.6239,-4.6307,-4.6333,-4.6356,-4.6538,-4.6407,-4.6403,-4.6445,-4.6431,-4.6465,-4.6465,-4.6441,-4.658,-4.6602,-4.6697,-4.6519,-4.6934,-4.6947,-4.6958,-4.7099,-4.7126,-4.7149,0,0,0,0,0,-4.6202,-4.6347,-4.6311,-4.6334,-4.6441,-4.6544,-4.6557,-4.6526,-4.6453,-4.6521,-4.6524,-4.6464,-4.6673,-4.6594,-4.6618,-4.6717,-4.6927,-4.6943,-4.6957,-4.7087,-4.7121,-4.7149,0,0,0,0,0,0,-4.6334,-4.635,-4.631,-4.6468,-4.6505,-4.6524,-4.661,-4.6562,-4.6622,-4.6607,-4.6566,-4.6575,-4.6716,-4.6729,-4.6641,-4.6892,-4.6788,-4.6809,-4.6879,-4.691,-4.6935,-4.693,-4.6527,0,0,0,0,0,-4.6381,-4.6462,-4.6472,-4.661,-4.663,-4.6617,-4.666,-4.6633,-4.667,-4.6686,-4.6698,-4.6737,-4.6811,-4.6861,-4.693,-4.7099,-4.7105,-4.7179,-4.7204,-4.7225,-4.7244,-4.7334,-4.7367,-4.7014,-4.7014,-4.7014,0,0,-4.648,-4.6498,-4.6553,-4.6637,-4.6662,-4.6748,-4.6631,-4.6727,-4.679,-4.67,-4.6826,-4.6836,-4.6876,-4.7028,-4.7095,-4.7044,-4.7342,-4.7244,-4.7261,-4.7268,-4.7353,-4.7387,-4.7416,-4.7025,-4.7023,-4.7021,0,0,-4.6704,-4.6726,-4.6843,-4.6871,-4.6911,-4.6901,-4.6929,-4.6955,-4.6958,-4.7083,-4.7017,-4.7091,-4.722,-4.7252,-4.7285,-4.7519,-4.7466,-4.7542,-4.7675,-4.7764,-4.7792,-4.7816,-4.7901,-4.7931,-4.756,-4.7561,-4.7561,0,-4.6822,-4.6948,-4.691,-4.701,-4.7049,-4.697,-4.7089,-4.7118,-4.7179,-4.7207,-4.7148,-4.7307,-4.7329,-4.7487,-4.7544,-4.7573,-4.7604,-4.7539,-4.7791,-4.7815,-4.7837,-4.7917,-4.7949,-4.757,-4.7569,-4.7568,-4.7567,0,-4.7092,-4.718,-4.727,-4.733,-4.7378,-4.7487,-4.7466,-4.752,-4.7487,-4.7483,-4.7611,-4.7634,-4.7706,-4.7741,-4.7711,-4.7894,-4.7861,-4.7797,-4.7692,-4.7881,-4.7955,-4.7985,-4.7583,-4.758,-4.7577,-4.7575,0,0,-4.7404,-4.7439,-4.7473,-4.7499,-4.7536,-4.7604,-4.7709,-4.7778,-4.7825,-4.7869,-4.7956,-4.8066,-4.8007,-4.8044,-4.8016,-4.8094,-4.8279,-4.802,-4.8021,-4.8069,-4.8483,-4.8532,-4.8568,-4.8243,-4.8248,-4.8253,-4.848,0,-4.7628,-4.7809,-4.7777,-4.7954,-4.8034,-4.796,-4.8051,-4.8084,-4.8083,-4.8151,-4.8149,-4.8228,-4.8143,-4.8165,-4.8239,-4.8241,-4.8361,-4.8224,-4.8325,-4.8329,-4.8319,-4.8606,-4.8659,-4.8872,-4.8508,-4.8513,-4.8517,0,-4.7915,-4.7969,-4.8153,-4.8176,-4.8209,-4.8292,-4.8352,-4.8418,-4.8454,-4.8447,-4.8488,-4.8446,-4.855,-4.8442,-4.8585,-4.8492,-4.8531,-4.8538,-4.8546,-4.8555,-4.8436,-4.8625,-4.8939,-4.8972,-4.8562,-4.8558,-4.8555,0,-4.8126,-4.8244,-4.8369,-4.8393,-4.8423,-4.8483,-4.8499,-4.8528,-4.8571,-4.8623,-4.8651,-4.8716,-4.8751,-4.8802,-4.8778,-4.8701,-4.8926,-4.8816,-4.8924,-4.8925,-4.8977,-4.8974,-4.9303,-4.9,-4.8999,-4.8999,-4.8998,0,-4.8381,-4.8497,-4.8464,-4.8541,-4.8668,-4.863,-4.8757,-4.8763,-4.879,-4.8867,-4.8806,-4.888,-4.8842,-4.8914,-4.8895,-4.9017,-4.9033,-4.9031,-4.9026,-4.9038,-4.9039,-4.9064,-4.905,-4.9007,-4.9005,-4.9004,-4.9002,0,-4.8638,-4.8621,-4.8753,-4.877,-4.8777,-4.887,-4.8884,-4.8957,-4.8949,-4.9048,-4.9069,-4.9059,-4.9139,-4.9119,-4.9207,-4.9195,-4.9349,-4.9323,-4.9337,-4.9331,-4.9441,-4.9432,-4.9799,-4.9845,-4.9512,-4.9515,-4.9517,0,-4.8803,-4.889,-4.8916,-4.8963,-4.8983,-4.906,-4.9103,-4.9068,-4.9116,-4.9161,-4.9229,-4.9303,-4.9361,-4.9493,-4.9494,-4.9561,-4.9537,-4.9661,-4.9547,-4.9557,-4.954,-4.9536,-4.9545,-4.9685,-4.9689,-4.9692,-4.9694,0,-4.9098,-4.9084,-4.9149,-4.9211,-4.9264,-4.9312,-4.9353,-4.9395,-4.9362,-4.9419,-4.95,-4.9545,-4.9634,-4.971,-4.9771,-4.9786,-4.9736,-4.973,-4.9758,-4.9773,-4.9778,-4.9778,-4.94,-4.9722,-4.9719,-4.9717,-4.9716,-4.9715,-4.9315,-4.9389,-4.9418,-4.9492,-4.9519,-4.9559,-4.9628,-4.9628,-4.9695,-4.9765,-4.9739,-4.9832,-4.9864,-4.994,-4.9964,-5.0036,-4.9989,-5.0031,-5.0041,-5.0053,-5.0067,-4.9765,-5.0047,-5.0046,-5.0045,-5.0044,-5.0044,0,-4.9607,-4.9622,-4.969,-4.975,-4.9808,-4.9753,-4.9795,-4.9848,-4.993,-4.9964,-5.0022,-5.0114,-5.0187,-5.0192,-5.026,-5.0316,-5.0295,-5.0336,-5.0332,-5.0336,-5.0104,-5.0073,-5.0352,-5.0352,-5.0352,-5.0352,-5.0352,-5.0351,-4.9767,-4.9889,-4.9879,-5.0013,-5.0027,-5.0117,-5.0146,-5.0182,-5.0208,-5.0315,-5.0374,-5.0376,-5.0398,-5.0467,-5.0531,-5.053,-5.0558,-5.0609,-5.06,-5.0383,-5.0353,-5.0324,-5.0294,-5.0615,-5.0615,-5.0826,-5.0828,-5.0829]},{"header":{"parameterUnit":"m.s-1","parameterCategory":1,"la1":30.2991,"la2":30.254,"lo1":-89.0895,"lo2":-89.0444,"dy":0.0017,"dx":0.0017,"nx":28,"ny":28,"refTime":"2025-02-12T09:00:00:Z","depth":0,"parameterNumber":3,"parameterNumberName":"V-component_of_WINDS"},"data":[0,0,0,0,0,0,0,0,0,0,0,0,0,0,0,0,0,0,0,0,0,0,0,0,0,0,0,0,0,0,0,0,0,0,0,0,0,0,0,0,0,0,0,0,0,0,0,0,0,0,0,0,0,0,0,0,0,0,-5.3447,-5.3448,0,-5.3524,-5.3525,-5.3526,-5.3477,-5.3474,-5.3472,-5.347,-5.3544,-5.3548,-5.3552,0,0,0,0,0,0,0,0,0,0,0,0,0,-5.3251,-5.3254,-5.3447,-5.3448,-5.3449,-5.3524,-5.3525,-5.3526,-5.3477,-5.3474,-5.3471,-5.3469,-5.3543,-5.3548,-5.3553,0,0,0,0,0,0,0,0,0,0,0,0,0,-5.3333,-5.3256,-5.3447,-5.3434,-5.3433,-5.3524,-5.3525,-5.3526,-5.3478,-5.3474,-5.3471,-5.3468,-5.3541,-5.3547,-5.3553,-5.366,0,0,-5.3572,-5.3575,0,0,0,0,0,0,0,0,-5.3328,-5.334,-5.3435,-5.3435,-5.3434,-5.3487,-5.3483,-5.3571,-5.3478,-5.3461,-5.347,-5.3466,-5.3528,-5.3535,-5.3557,-5.3664,-5.3667,-5.3573,-5.3577,-5.3579,-5.3581,0,0,0,0,0,0,0,-5.3322,-5.3336,-5.3477,-5.3436,-5.3436,-5.3422,-5.3429,-5.35,-5.3512,-5.3462,-5.3458,-5.3469,-5.3527,-5.3551,-5.3558,-5.3668,-5.3573,-5.3578,-5.3582,-5.3584,-5.3863,-5.3866,0,0,0,0,0,0,-5.3318,-5.3332,-5.3475,-5.348,-5.3372,-5.3428,-5.3437,-5.3474,-5.3511,-5.3514,-5.3471,-5.3466,-5.3542,-5.3551,-5.3561,-5.3686,-5.3579,-5.3585,-5.3588,-5.3859,-5.3864,-5.3868,0,0,0,0,0,0,-5.3314,-5.3332,-5.3472,-5.3405,-5.3422,-5.3435,-5.3477,-5.3477,-5.3501,-5.3519,-5.352,-5.3494,-5.354,-5.3552,-5.3635,-5.3688,-5.3588,-5.3593,-5.3855,-5.3861,-5.3866,-5.3939,0,0,0,0,0,0,-5.3309,-5.3331,-5.3373,-5.3406,-5.3425,-5.3548,-5.348,-5.3481,-5.3512,-5.3506,-5.354,-5.3543,-5.3538,-5.3626,-5.3642,-5.3695,-5.3598,-5.385,-5.3857,-5.3864,-5.3932,-5.3947,-5.3959,0,0,0,0,0,-5.3302,-5.339,-5.3375,-5.3393,-5.3479,-5.3551,-5.3561,-5.3556,-5.3517,-5.3558,-5.3569,-5.3541,-5.368,-5.3635,-5.3652,-5.3708,-5.3847,-5.3855,-5.3863,-5.3926,-5.3944,-5.3959,0,0,0,0,0,0,-5.3362,-5.3394,-5.3378,-5.348,-5.3513,-5.3542,-5.3595,-5.3575,-5.3619,-5.3611,-5.36,-5.3608,-5.3695,-5.371,-5.366,-5.3812,-5.3757,-5.3769,-5.3799,-5.3816,-5.3829,-5.3823,-5.3603,0,0,0,0,0,-5.3387,-5.3444,-5.3469,-5.3556,-5.3574,-5.3581,-5.3612,-5.3605,-5.3638,-5.3652,-5.3669,-5.37,-5.3751,-5.3784,-5.3832,-5.3934,-5.3939,-5.398,-5.3994,-5.4005,-5.4015,-5.4068,-5.4086,-5.3895,-5.3895,-5.3895,0,0,-5.3439,-5.3464,-5.3501,-5.3569,-5.3593,-5.3651,-5.3593,-5.3657,-5.3699,-5.3661,-5.3741,-5.3754,-5.3789,-5.3882,-5.3923,-5.3896,-5.4069,-5.4015,-5.4024,-5.4028,-5.4078,-5.4096,-5.4112,-5.3901,-5.39,-5.3899,0,0,-5.3563,-5.3589,-5.3663,-5.3689,-5.3728,-5.3732,-5.375,-5.3782,-5.379,-5.387,-5.3842,-5.389,-5.3978,-5.4003,-5.4027,-5.4159,-5.4134,-5.4175,-5.4244,-5.4296,-5.4311,-5.4324,-5.4369,-5.4386,-5.4185,-5.4185,-5.4185,0,-5.3622,-5.371,-5.3704,-5.377,-5.3799,-5.3768,-5.3842,-5.3867,-5.3918,-5.3938,-5.3908,-5.4016,-5.4037,-5.4134,-5.4166,-5.4187,-5.4205,-5.417,-5.431,-5.4323,-5.4335,-5.4378,-5.4395,-5.419,-5.4189,-5.4189,-5.4188,0,-5.378,-5.3841,-5.3896,-5.3948,-5.3984,-5.4053,-5.4055,-5.4092,-5.4081,-5.4087,-5.4168,-5.4192,-5.4243,-5.4266,-5.4255,-5.4361,-5.4343,-5.4311,-5.4256,-5.4358,-5.4398,-5.4415,-5.4196,-5.4194,-5.4193,-5.4192,0,0,-5.3945,-5.3991,-5.4011,-5.4033,-5.4073,-5.4118,-5.4185,-5.4236,-5.4267,-5.4303,-5.4357,-5.4431,-5.4402,-5.4429,-5.4421,-5.4467,-5.4567,-5.4429,-5.443,-5.4453,-5.4682,-5.4705,-5.4724,-5.4551,-5.4554,-5.4556,-5.4678,0,-5.407,-5.4189,-5.4184,-5.4294,-5.4348,-5.4319,-5.4376,-5.4405,-5.4413,-5.4458,-5.4466,-5.4518,-5.4477,-5.4493,-5.4536,-5.4546,-5.4612,-5.4537,-5.4599,-5.4601,-5.4591,-5.4745,-5.477,-5.4884,-5.4694,-5.4697,-5.4699,0,-5.4233,-5.4275,-5.4391,-5.442,-5.4442,-5.4495,-5.454,-5.4585,-5.4616,-5.4618,-5.4648,-5.4632,-5.4697,-5.4641,-5.4728,-5.4677,-5.4702,-5.471,-5.4714,-5.4719,-5.4656,-5.4753,-5.492,-5.4937,-5.4724,-5.4722,-5.472,0,-5.4339,-5.4425,-5.4504,-5.4524,-5.4561,-5.4598,-5.4615,-5.4643,-5.4673,-5.4712,-5.473,-5.4776,-5.4801,-5.4835,-5.4831,-5.479,-5.4919,-5.4863,-5.4921,-5.4921,-5.4949,-5.4947,-5.5122,-5.4967,-5.4967,-5.4967,-5.4966,0,-5.4479,-5.455,-5.4552,-5.4602,-5.468,-5.4672,-5.4749,-5.4761,-5.4786,-5.4835,-5.4812,-5.4858,-5.485,-5.4895,-5.4892,-5.4964,-5.4975,-5.4977,-5.4975,-5.4979,-5.4979,-5.4994,-5.4986,-5.4971,-5.497,-5.4969,-5.4968,0,-5.4611,-5.4616,-5.47,-5.4728,-5.4736,-5.4793,-5.4815,-5.486,-5.4865,-5.4927,-5.4941,-5.4949,-5.5001,-5.5,-5.5059,-5.5057,-5.5145,-5.5134,-5.5135,-5.5132,-5.5189,-5.5184,-5.538,-5.5404,-5.5235,-5.5236,-5.5238,0,-5.47,-5.4754,-5.4787,-5.4819,-5.4838,-5.489,-5.4921,-5.4915,-5.4947,-5.4986,-5.5025,-5.5075,-5.5115,-5.5199,-5.5208,-5.5253,-5.5242,-5.5308,-5.5249,-5.525,-5.5241,-5.5238,-5.5242,-5.5319,-5.5321,-5.5323,-5.5324,0,-5.4856,-5.4855,-5.4901,-5.4948,-5.4985,-5.5022,-5.5055,-5.5081,-5.5078,-5.5116,-5.5169,-5.52,-5.526,-5.5309,-5.5351,-5.5366,-5.5344,-5.5342,-5.5358,-5.5361,-5.5359,-5.5359,-5.5165,-5.5338,-5.5336,-5.5335,-5.5335,-5.5334,-5.4968,-5.5014,-5.5044,-5.5096,-5.512,-5.5151,-5.5194,-5.5205,-5.525,-5.5299,-5.5292,-5.5351,-5.5378,-5.5433,-5.5452,-5.5496,-5.5473,-5.5495,-5.5501,-5.5506,-5.5512,-5.5353,-5.5504,-5.5503,-5.5503,-5.5503,-5.5502,0,-5.5121,-5.5139,-5.5187,-5.5234,-5.5274,-5.5251,-5.5286,-5.532,-5.5373,-5.5401,-5.544,-5.55,-5.5547,-5.556,-5.5605,-5.5638,-5.5629,-5.565,-5.5646,-5.565,-5.5531,-5.5513,-5.5656,-5.5656,-5.5656,-5.5656,-5.5656,-5.5656,-5.5206,-5.5282,-5.5285,-5.5371,-5.5388,-5.5447,-5.5469,-5.5496,-5.5518,-5.5587,-5.5626,-5.5635,-5.5656,-5.5701,-5.5743,-5.5745,-5.5762,-5.5787,-5.5785,-5.5674,-5.5658,-5.5644,-5.5626,-5.5791,-5.5791,-5.5899,-5.59,-5.5901]}]]